Weather History for KDTO - November, 2013

Change the Weather History Date:

Wednesday, November 20, 2013

  Actual Average Record
Temperature  
Mean Temperature 56 °F -  
Max Temperature 63 °F 62 °F 80 °F (2007)
Min Temperature 48 °F 41 °F 28 °F (2000)
Degree Days  
Heating Degree Days 10    
Growing Degree Days 6 (Base 50)    
Moisture  
Dew Point 42 °F    
Average Humidity 58    
Maximum Humidity 75    
Minimum Humidity 42    
Precipitation  
Precipitation 0.00 in - - ()
Sea Level Pressure  
Sea Level Pressure 29.95 in    
Wind  
Wind Speed 13 mph (SSE)    
Max Wind Speed 18 mph    
Max Gust Speed 25 mph    
Visibility 10 miles    
Events      
Averages and records for this station are not official NWS values.
T = Trace of Precipitation, MM = Missing Value Source: NWS Daily Summary

Daily Weather History Graph

Daily Weather History Graph

Search for Another Location

Airport or City:

Trip Planner

Search our weather history database for the weather conditions in past years. The results will help you decide how hot, cold, wet, or windy it might be!

Date:

Astronomy

Nov. 20, 2013 Rise Set
Actual Time 7:04 AM CST 5:24 PM CST
Civil Twilight 6:38 AM CST 5:50 PM CST
Nautical Twilight 6:07 AM CST 6:20 PM CST
Astronomical Twilight 5:38 AM CST 6:50 PM CST
Moon 8:08 PM CST (11/20) 9:30 AM CST (11/20)
Length of Visible Light 11h 12m
Length of Day
10h 19m
Waning Gibbous, 91% of the Moon is Illuminated
Nov 20
Waning Gibbous
Nov 25
Last Quarter
Dec 2
New
Dec 9
First Quarter
Dec 17
Full

Hourly Weather History & Observations

Time (CST) Temp. Dew Point Humidity Pressure Visibility Wind Dir Wind Speed Gust Speed Precip Events Conditions
12:53 AM 54.0 °F 33.1 °F 45% 30.00 in 10.0 mi SE 15.0 mph - N/A   Clear
1:53 AM 52.0 °F 34.0 °F 50% 30.00 in 10.0 mi SSE 11.5 mph - N/A   Clear
2:53 AM 51.1 °F 34.0 °F 52% 30.00 in 10.0 mi SE 11.5 mph - N/A   Clear
3:53 AM 50.0 °F 35.1 °F 57% 29.99 in 10.0 mi SSE 11.5 mph - N/A   Clear
4:53 AM 50.0 °F 35.1 °F 57% 29.99 in 10.0 mi SSE 11.5 mph - N/A   Partly Cloudy
5:53 AM 48.9 °F 36.0 °F 61% 29.99 in 10.0 mi SE 8.1 mph - N/A   Partly Cloudy
6:09 AM 48.2 °F 35.6 °F 62% 29.99 in 10.0 mi SE 9.2 mph - N/A   Mostly Cloudy
6:53 AM 50.0 °F 36.0 °F 59% 29.98 in 10.0 mi SSE 12.7 mph - N/A   Overcast
7:53 AM 51.1 °F 36.0 °F 56% 29.99 in 10.0 mi SSE 12.7 mph - N/A   Overcast
8:53 AM 53.1 °F 36.0 °F 52% 30.00 in 10.0 mi SSE 12.7 mph - N/A   Overcast
9:44 AM 55.4 °F 33.8 °F 44% 29.99 in 10.0 mi SE 16.1 mph - N/A   Scattered Clouds
9:53 AM 57.0 °F 34.0 °F 42% 29.98 in 10.0 mi SSE 18.4 mph - N/A   Partly Cloudy
10:53 AM 59.0 °F 37.0 °F 44% 29.98 in 10.0 mi SSE 18.4 mph - N/A   Mostly Cloudy
11:53 AM 59.0 °F 39.9 °F 49% 29.96 in 10.0 mi SSE 13.8 mph - N/A   Overcast
12:53 PM 61.0 °F 43.0 °F 52% 29.92 in 10.0 mi SSE 11.5 mph - N/A   Overcast
1:53 PM 62.1 °F 46.0 °F 56% 29.89 in 10.0 mi SSE 15.0 mph - N/A   Overcast
2:53 PM 62.1 °F 46.9 °F 58% 29.88 in 10.0 mi SSE 17.3 mph - N/A   Overcast
3:53 PM 63.0 °F 48.9 °F 60% 29.88 in 10.0 mi SSE 12.7 mph - N/A   Overcast
4:53 PM 63.0 °F 51.1 °F 65% 29.89 in 10.0 mi SSE 15.0 mph - N/A   Overcast
5:53 PM 63.0 °F 51.1 °F 65% 29.90 in 10.0 mi SSE 13.8 mph - N/A   Overcast
6:53 PM 62.1 °F 50.0 °F 65% 29.91 in 10.0 mi SSE 17.3 mph 25.3 mph N/A   Overcast
7:53 PM 61.0 °F 50.0 °F 67% 29.93 in 10.0 mi SSE 13.8 mph - N/A   Overcast
8:53 PM 61.0 °F 50.0 °F 67% 29.93 in 10.0 mi SSE 16.1 mph - N/A   Overcast
9:27 PM 60.8 °F 50.0 °F 68% 29.94 in 10.0 mi SSE 13.8 mph - N/A   Overcast
9:53 PM 61.0 °F 51.1 °F 70% 29.94 in 10.0 mi SSE 10.4 mph - N/A   Overcast
10:53 PM 61.0 °F 52.0 °F 72% 29.94 in 10.0 mi SSE 11.5 mph - N/A   Overcast
11:53 PM 61.0 °F 53.1 °F 75% 29.95 in 10.0 mi SSE 9.2 mph - N/A   Overcast